Regional Weather Roundup
Issued by NWS San Diego, CA

Home | Current Version | Previous Version | Text Only | Print | Product List | Glossary On
Versions: 1 2 3 4 5 6 7 8 9 10 11 12 13 14 15 16 17 18 19 20 21 22 23 24 25 26 27 28 29 30 31 32 33 34 35 36 37 38 39 40 41 42 43 44 45 46 47 48 49 50
000
ASUS46 KSGX 220211
RWRSGX

SAN DIEGO HOURLY WEATHER ROUNDUP
NATIONAL WEATHER SERVICE SAN DIEGO CA
600 PM PST TUE FEB 21 2017

NOTE: "FAIR" INDICATES FEW OR NO CLOUDS BELOW 12,000 FEET WITH NO
SIGNIFICANT WEATHER AND/OR OBSTRUCTIONS TO VISIBILITY.

CAZ042-043-060-061-PZZ750-775-220300-

GREATER SAN DIEGO AREA

CITY           SKY/WX    TMP DP  RH WIND       PRES   REMARKS
SAN DIEGO AP   MOCLDY    63  54  72 NW7       30.23R
NATIONAL CITY    N/A     64  56  74 N3        30.21S
CHULA VISTA      N/A     64  56  76 NW5       30.14R
IMPERIAL BEACH MOCLDY    64  55  72 W9        30.22R
BROWN FIELD    CLEAR     60  56  86 W8        30.21S
MIRAMAR MCAS   PTCLDY    63  55  75 NW9       30.21S
MONTGOMERY FLD CLEAR     60  53  77 NW9       30.21S

$$

NORTH SAN DIEGO COUNTY

CITY           SKY/WX    TMP DP  RH WIND       PRES   REMARKS
CAMP PENDLETON CLOUDY    62  56  80 CALM      30.20S
OCEANSIDE AP   CLOUDY    61  57  87 W6        30.20S
OCEANSIDE HBR    N/A     59  57  92 N14       30.24S
VISTA            N/A     61  56  83 CALM      30.20S
CARLSBAD       MOCLDY    60  56  86 VRB3      30.21S
DEL MAR          N/A     59  57  91 CALM      30.24S
LA JOLLA SCRIP   N/A     59  57  92 NW2       30.22S
FALLBROOK        N/A     61  59  95 CALM      30.19F
ESCONDIDO        N/A     63  56  77 W8        30.23R
SAN MARCOS       N/A     61  54  78 NW1       30.23S
POWAY            N/A     63  55  75 CALM      30.23S

$$

EAST SAN DIEGO COUNTY

CITY           SKY/WX    TMP DP  RH WIND       PRES   REMARKS
RAMONA         PTCLDY    59  54  83 NW6       30.21S
SANTEE LAKES     N/A     63  55  76 CALM      30.20R
LA MESA          N/A     61  55  78 CALM      30.14S
JAMUL            N/A     63  53  70 CALM      30.21S
DESCANSO N       N/A     55  47  75 CALM      30.18S
CAMPO            N/A     59  52  77 SW9       30.19F

$$

ORANGE COUNTY AND THE LOS ANGELES BASIN

CITY           SKY/WX    TMP DP  RH WIND       PRES   REMARKS
JOHN WAYNE AP  CLOUDY    64  55  72 W6        30.21F
LAGUNA BEACH     N/A    N/A N/A N/A CALM      30.16F
LAKE FOREST FR   N/A     60  52  75 CALM      30.12S
HUNTINGTON BCH   N/A     62  57  83 W3        30.23S
LOS ALAMITOS   CLOUDY    62  55  78 NW8       30.21F
FULLERTON      CLOUDY    64  54  69 NW7       30.21S
LONG BEACH     CLOUDY    62  55  77 W8        30.22F
L.A. AP        MOCLDY    61  55  81 W10       30.23S
L.A. DOWNTOWN  CLOUDY    64  54  69 CALM      30.22S

$$

THE INLAND EMPIRE

CITY           SKY/WX    TMP DP  RH WIND       PRES   REMARKS
CORONA         CLOUDY    65  51  60 NW6       30.22R
CHINO          CLOUDY    64  48  56 W6        30.22S
ONTARIO        CLOUDY    64  45  49 W6        30.21S
SAN BERNARDINO CLOUDY    64  41  42 SW6       30.22S
RIVERSIDE AP   CLOUDY    62  49  62 W6        30.21S
MORENO VALLEY    N/A     62  50  63 CALM      28.31S
MARCH ARB      CLOUDY    58  53  84 NW6       30.22R
HORSETHIEF CYN   N/A     61  48  62 NW2       30.22S
PERRIS           N/A     62  51  68 SW3       30.23F
HEMET EAST       N/A     59  47  63 CALM      30.27F
FRENCH VALLEY  MOCLDY    63  52  67 CALM      30.21S
TEMECULA         N/A     66  54  66 NE1       30.26S

$$

SAN BERNARDINO AND RIVERSIDE COUNTY MOUNTAINS

CITY           SKY/WX    TMP DP  RH WIND       PRES   REMARKS
BIG BEAR AP    CLOUDY    41  32  70 SW5       30.29F
PINE COVE        N/A     44  37  75 N1        30.21F

$$

SOUTHERN DESERT INCLUDING THE COACHELLA VALLEY

CITY           SKY/WX    TMP DP  RH WIND       PRES   REMARKS
PALM SPRINGS   MOCLDY    72  49  44 N3        30.15F
PALM DESERT      N/A     72  51  48 CALM        N/A
THERMAL        PTCLDY    67  54  63 CALM      30.11S
BLYTHE         PTCLDY    70  58  65 N3        30.13S
IMPERIAL AP    CLEAR     71  57  61 N6        30.12S
EL CENTRO NAS  MOCLDY    69  52  54 NE6       30.14S
YUMA AZ        CLEAR     73  48  41 NW6       30.12
MEXICALI       CLEAR     73  48  40 NW5       30.13F

$$

UPPER DESERT

CITY           SKY/WX    TMP DP  RH WIND       PRES   REMARKS
VICTORVILLE AP CLOUDY    57  37  47 CALM      30.22S
HESPERIA         N/A     56  37  49 W5        30.32R
PALMDALE       MOCLDY    56  48  74 SW21      30.22S
LANCASTER      MOCLDY    53  48  83 SW13      30.21R
EDWARDS AFB    MOCLDY    55  49  81 S12       30.17F
DAGGETT        MOCLDY    63  37  38 SW15      30.17S
29 PALMS N     MOCLDY    65  32  29 SW10      30.22F
NEEDLES        MOCLDY    68  56  65 CALM      30.13F

$$

REGIONAL REPORTS

CITY           SKY/WX    TMP DP  RH WIND       PRES   REMARKS
SANTA BARBARA  FOG       56  56 100 CALM      30.23S VSB 1/4
SANDBERG       FOG       47  46  97 S9        30.24S VSB 1/4
LAS VEGAS NV   MOCLDY    64  40  41 S8        30.09S
PHOENIX AZ     MOCLDY    71  50  47 W7        30.14S
TIJUANA        PTCLDY    59  52  77 W8        30.23S
ENSENADA NW      N/A     61  32  33 E8        30.17S

$$

OFFSHORE ISLANDS

CITY           SKY/WX    TMP DP  RH WIND       PRES   REMARKS
CATALINA ARPT  FOG       55  55 100 W9        30.24S VSB 1/4
SAN CLEMENTE I CLOUDY    60  57  89 W8        30.25F FOG
SAN NICOLAS IS CLOUDY   N/A N/A N/A W6        30.24S

$$

MARINE AND OFFSHORE BUOY REPORTS

STATION/POSITION SKY/WX   TEMP    WIND        PRES    VSBY  SWELL
                          AIR SEA DIR/SP/G                  HT/PER/DIR
                          (F)     (DEG/KT/KT) (MB)    (MI)  (FT/S/D)
TANNER BANKS               59 60  300/  8/ 10 1023.8F        10/300/11
S CLEMENTE BASIN           60 60  310/ 12/ 14 1023.3F         7/290/14
SAN NICOLAS IS.               58                N/A           7/290/12
SO. S. ROSA ISLA           57 57  300/  6/  8 1023.9         10/290/13
W. S. BARBARA CH           55 57  330/  4/  6 1024.1F        10/270/11
M. S. BARBARA CH                  180/  4/  6 1024.3S
S. MONICA BASIN            59 59  270/  2/  4 1023.5F         5/270/12
S PEDRO CHANNEL               60                N/A           5/260/13
CMP PENDLETON NS              60                N/A           2/230/13
OCEANSIDE OFFSHR              60                N/A           2/260/13
TORREY PINES OTR              60                N/A           2/270/13
POINT LOMA SOUTH              60                N/A           3/260/14

$$




USA.gov is the U.S. government's official web portal to all federal, state and local government web resources and services.